St. Cloud, MN

6:43 AM CST on November 17, 2019 (GMT -0600)
Saint Cloud Regional

Weather History for KSTC - October, 2019

Change the Weather History Date:

Sunday, October 13, 2019

  Actual Average Record
Temperature  
Mean Temperature 37 °F 47 °F  
Max Temperature 43 °F 58 °F 83 °F (1956)
Min Temperature 31 °F 36 °F 10 °F (1917)
Degree Days  
Heating Degree Days 28 18  
Month to date heating degree days 227 205  
Since 1 July heating degree days 402 491  
Cooling Degree Days 0 0  
Month to date cooling degree days 0 0  
Year to date cooling degree days 452 463  
Moisture  
Dew Point 30 °F    
Average Humidity 82    
Maximum Humidity 92    
Minimum Humidity 63    
Precipitation  
Precipitation 0.03 in 0.09 in 1.23 in (1981)
Month to date precipitation 2.42 1.21  
Year to date precipitation 37.31 24.25  
Sea Level Pressure  
Sea Level Pressure 29.77 in    
Wind  
Wind Speed 11 mph ()    
Max Wind Speed 20 mph    
Max Gust Speed 26 mph    
Visibility 9.4 miles    
Events Rain , Snow    
T = Trace of Precipitation, MM = Missing Value Source: Averaged Metar Reports

Daily Weather History Graph

Daily Weather History Graph

Search for Another Location

Airport or City:

Astronomy

Oct. 13, 2019 Rise Set
Actual Time 7:29 AM CDT 6:34 PM CDT
Civil Twilight 6:59 AM CDT 7:04 PM CDT
Nautical Twilight 6:25 AM CDT 7:38 PM CDT
Astronomical Twilight 5:51 AM CDT 8:12 PM CDT
Moon 6:59 PM CDT (10/13) 7:00 AM CDT (10/13)
Length of Visible Light 12h 04m
Length of Day
11h 04m
Full, 100% of the Moon is Illuminated
Oct 13
Full
Oct 13
Full
Oct 21
Last Quarter
Oct 27
New
Nov 4
First Quarter

Hourly Weather History & Observations

Time (CDT) Temp. Windchill Dew Point Humidity Pressure Visibility Wind Dir Wind Speed Gust Speed Precip Events Conditions
12:06 AM 34.0 °F 25.0 °F 30.9 °F 89% 29.60 in 10.0 mi West 12.7 mph - N/A   Overcast
12:53 AM 34.0 °F 23.8 °F 30.0 °F 85% 29.67 in 10.0 mi West 16.1 mph - N/A   Overcast
1:53 AM 34.0 °F 26.0 °F 30.9 °F 89% 29.67 in 10.0 mi West 10.4 mph - N/A   Overcast
2:07 AM 34.0 °F 26.0 °F 30.9 °F 89% 29.62 in 10.0 mi West 10.4 mph - N/A   Overcast
2:50 AM 35.6 °F 25.9 °F 30.2 °F 81% 29.63 in 10.0 mi West 16.1 mph 21.9 mph N/A   Overcast
2:53 AM 35.1 °F 24.8 °F 30.0 °F 82% 29.68 in 10.0 mi West 17.3 mph - N/A   Overcast
3:28 AM 33.1 °F 24.4 °F 30.0 °F 89% 29.64 in 1.8 mi WNW 11.5 mph 21.9 mph 0.00 in Snow Light Snow
3:41 AM 33.1 °F 23.9 °F 30.9 °F 92% 29.64 in 3.0 mi WNW 12.7 mph - 0.01 in Snow Light Snow
3:53 AM 33.1 °F 23.4 °F 30.0 °F 89% 29.70 in 3.0 mi West 13.8 mph - 0.01 in Snow Light Snow
4:00 AM 33.1 °F 26.1 °F 30.0 °F 89% 29.64 in 9.0 mi West 8.1 mph - 0.00 in   Overcast
4:53 AM 32.0 °F 24.8 °F 30.0 °F 92% 29.71 in 10.0 mi West 8.1 mph - 0.00 in   Scattered Clouds
5:53 AM 33.1 °F 26.9 °F 30.9 °F 92% 29.72 in 10.0 mi West 6.9 mph - N/A   Overcast
6:42 AM 34.0 °F 26.0 °F 30.9 °F 89% 29.66 in 10.0 mi West 10.4 mph - N/A   Overcast
6:53 AM 34.0 °F 26.6 °F 30.9 °F 89% 29.72 in 10.0 mi West 9.2 mph - N/A   Overcast
7:53 AM 34.0 °F 26.0 °F 30.9 °F 89% 29.74 in 10.0 mi West 10.4 mph - N/A   Overcast
8:53 AM 35.1 °F 26.9 °F 30.9 °F 85% 29.75 in 10.0 mi West 11.5 mph - N/A   Overcast
9:17 AM 35.1 °F 26.4 °F 30.9 °F 85% 29.70 in 10.0 mi WNW 12.7 mph - N/A   Overcast
9:53 AM 36.0 °F 28.0 °F 30.9 °F 82% 29.77 in 10.0 mi WNW 11.5 mph - N/A   Overcast
10:53 AM 37.0 °F 28.5 °F 32.0 °F 82% 29.79 in 10.0 mi West 13.8 mph - N/A   Overcast
11:09 AM 36.0 °F 28.5 °F 32.0 °F 86% 29.73 in 10.0 mi West 10.4 mph - N/A   Overcast
11:53 AM 37.9 °F 29.6 °F 32.0 °F 79% 29.79 in 10.0 mi West 13.8 mph 21.9 mph N/A   Overcast
12:53 PM 39.0 °F 30.6 °F 33.1 °F 79% 29.81 in 10.0 mi WNW 15.0 mph - 0.00 in   Overcast
1:53 PM 39.0 °F 30.6 °F 32.0 °F 76% 29.82 in 10.0 mi WNW 15.0 mph 21.9 mph 0.01 in Rain Light Rain
2:53 PM 42.1 °F 34.5 °F 30.9 °F 65% 29.83 in 10.0 mi NW 15.0 mph 25.3 mph 0.00 in   Overcast
3:53 PM 39.9 °F 32.5 °F 30.9 °F 70% 29.85 in 10.0 mi WNW 12.7 mph - 0.01 in   Mostly Cloudy
4:33 PM 39.0 °F 30.6 °F 30.9 °F 73% 29.81 in 10.0 mi WNW 15.0 mph 25.3 mph 0.00 in Rain Light Rain
4:41 PM 39.0 °F 31.4 °F 30.9 °F 73% 29.81 in 10.0 mi NW 12.7 mph - 0.00 in Rain Light Rain
4:53 PM 39.9 °F 32.1 °F 30.9 °F 70% 29.87 in 10.0 mi NW 13.8 mph - 0.00 in   Overcast
5:53 PM 39.9 °F 32.1 °F 28.0 °F 63% 29.89 in 10.0 mi West 13.8 mph 24.2 mph N/A   Scattered Clouds
6:16 PM 39.0 °F 31.8 °F 28.0 °F 65% 29.84 in 10.0 mi WNW 11.5 mph - N/A   Clear
6:53 PM 37.9 °F 31.5 °F 28.0 °F 68% 29.91 in 10.0 mi WNW 9.2 mph - N/A   Clear
7:53 PM 35.1 °F 30.1 °F 28.9 °F 78% 29.94 in 10.0 mi West 5.8 mph - N/A   Clear
8:53 PM 33.1 °F 26.9 °F 28.0 °F 82% 29.96 in 10.0 mi West 6.9 mph - N/A   Clear
9:53 PM 33.1 °F 26.9 °F 28.9 °F 85% 29.98 in 10.0 mi West 6.9 mph - N/A   Clear
10:53 PM 32.0 °F 28.7 °F 28.9 °F 88% 29.99 in 10.0 mi WNW 3.5 mph - N/A   Clear
11:53 PM 33.1 °F 28.7 °F 30.0 °F 89% 29.99 in 10.0 mi West 4.6 mph - N/A   Clear